CAPE
1 1 1 0 1 0 0 0 0 0 0 0 0 0 0 0 0 0 0 0 0 35 856 431 752 1215 780 672 13 20 28 47 50 53 96 101 105 86 170 239 336 241 6 23 0
1 1 1 0 0 0 0 0 0 0 0 0 0 0 0 0 0 0 0 0 2 584 1281 968 300 102 36 202 4 0 118 172 82 80 126 80 91 53 54 210 192 117 63 30 0
1 1 0 0 0 0 0 0 0 0 0 0 0 0 0 0 0 0 0 0 105 443 2 0 0 0 90 9 8 131 192 267 147 190 164 213 194 74 0 122 207 70 40 2 0
1 1 0 0 0 0 0 0 0 0 0 0 0 0 0 0 36 12 0 0 173 522 353 101 1 0 0 34 29 120 363 314 254 241 93 234 273 191 207 171 120 34 10 0 0
1 0 0 1 0 0 0 0 0 0 0 0 0 0 0 0 0 0 0 0 9 664 1023 15 11 0 9 18 123 51 124 248 285 117 143 278 82 0 267 243 156 36 0 0 0
1 0 0 0 0 0 0 0 0 0 0 0 0 0 0 0 0 0 0 0 25 713 891 262 62 0 0 1 125 117 254 273 328 316 371 362 204 301 243 107 62 12 0 0 0
1 0 0 0 0 0 0 0 0 0 0 0 0 0 0 0 13 0 9 24 372 1005 1460 654 147 82 65 2 25 39 57 331 354 444 468 566 182 109 196 195 92 11 9 0 0
0 1 0 0 0 0 0 0 0 0 0 0 0 0 0 0 75 33 153 306 562 787 845 357 176 109 28 34 5 91 43 240 353 623 114 851 386 185 176 122 111 43 2 0 0
0 0 0 0 0 0 0 0 0 0 0 0 0 0 0 0 0 489 378 475 591 616 218 169 96 97 96 2 24 55 76 100 323 656 108 288 673 251 250 104 44 34 5 1 3
0 0 0 0 0 0 0 0 0 0 0 0 0 0 0 0 0 0 602 654 584 237 194 174 46 0 6 22 0 18 59 124 109 580 358 577 768 323 279 268 106 31 11 6 1
0 0 0 0 0 0 0 0 0 0 0 0 0 0 0 0 0 0 260 283 173 45 68 43 13 91 0 10 2 22 16 81 69 210 233 720 933 698 301 331 240 134 44 6 3
0 0 0 0 0 0 0 0 0 0 0 0 0 0 0 0 0 2 114 57 43 68 38 4 0 33 11 0 2 10 5 0 0 2 851 931 881 890 601 467 436 387 245 67 37
0 0 0 0 0 0 0 0 0 0 0 0 0 0 0 0 0 0 48 30 27 13 0 0 0 0 0 0 0 0 1 3 16 0 819 898 852 848 898 678 628 620 580 455 449
0 0 0 0 0 0 0 0 0 0 0 0 0 0 0 0 0 0 0 0 0 0 0 0 0 0 0 0 0 0 0 0 0 16 513 488 373 628 869 939 825 790 787 773 724
0 0 0 0 0 0 0 0 0 0 0 0 0 0 0 0 0 0 0 0 0 0 0 0 0 0 0 0 0 0 0 0 0 0 0 250 229 87 337 954 1056 886 880 842 811
0 0 0 0 0 0 0 0 0 0 0 0 0 0 0 0 0 0 0 0 0 0 0 0 0 0 0 0 0 0 0 0 0 0 29 208 119 0 91 687 1006 969 886 798 786
0 0 0 0 0 0 0 0 0 0 4 0 0 0 0 0 0 0 0 0 0 0 0 0 0 0 0 0 0 0 0 0 0 0 21 98 88 67 118 484 806 910 839 870 758
0 0 0 0 0 0 0 0 0 0 38 0 0 0 0 0 0 0 0 0 0 0 0 0 0 0 0 0 0 0 0 0 0 0 65 17 208 129 15 33 70 386 590 586 830
0 0 0 0 0 0 0 0 0 0 25 6 0 0 0 0 0 0 0 0 0 0 0 0 0 0 0 0 0 0 0 0 0 0 136 32 0 15 37 12 48 153 248 315 266
0 0 0 0 0 0 0 0 0 13 24 17 0 0 0 0 0 0 0 0 0 0 0 2 10 8 1 0 0 0 0 0 0 8 132 136 1 2 69 14 46 1 1 97 111
0 0 0 0 0 0 0 0 0 0 0 12 2 6 12 4 10 0 0 0 0 0 0 0 0 0 0 2 2 0 0 0 0 0 5 193 87 13 112 90 49 0 0 0 17
0 0 0 0 0 0 0 0 0 0 0 4 0 0 0 0 13 24 0 0 0 0 0 0 0 0 2 0 0 0 0 0 0 0 128 162 114 1 0 1 78 118 20 110 135
0 0 0 0 0 0 0 0 0 0 0 11 0 2 0 0 0 0 5 0 0 0 0 0 0 0 6 0 0 0 0 0 0 31 31 3 45 0 1 4 3 10 200 866 1400
0 0 0 0 0 0 0 0 0 0 12 37 0 0 0 0 0 0 11 11 8 0 0 0 0 0 0 0 0 0 0 0 0 3 39 3 0 0 1 44 17 44 190 809 1549
0 13 0 1 0 0 0 0 0 0 1 0 0 2 13 0 0 93 23 4 0 0 0 0 0 0 0 0 0 0 0 0 0 0 0 70 1 18 2 2 0 93 469 892 975
0 0 0 0 0 0 0 0 0 0 0 0 1 0 29 163 89 35 54 76 52 0 0 0 0 0 0 0 0 0 0 0 0 0 0 0 77 66 26 75 49 157 135 901 803
0 0 0 0 0 0 0 0 2 0 0 0 0 7 31 0 0 0 0 40 21 10 0 0 0 0 0 0 0 0 0 0 0 0 0 0 175 108 58 64 150 36 253 636 1215
CIN
0 0 0 0 0 0 0 0 0 0 0 0 0 0 0 0 0 0 0 0 0 -320 -171 -174 -102 -25 -13 -7 -135 -176 -116 -74 -11 -11 -13 -4 -8 -23 -36 -25 -22 -63 -130 -136 -14
0 0 0 0 0 0 0 0 0 0 0 0 0 0 0 0 0 0 0 0 -116 -222 -100 -105 -112 -139 -141 -109 -96 0 -98 -37 -36 -6 -14 -16 -14 -51 -54 -38 -63 -94 -119 -125 0
0 0 0 0 0 0 0 0 0 0 0 0 0 0 0 0 0 0 0 0 -335 -258 -41 0 0 0 -121 -82 -255 -250 -137 -35 -26 -10 -6 -19 -47 -53 -4 -132 -115 -128 -168 -70 0
0 0 0 0 0 0 0 0 0 0 0 0 0 0 0 0 -15 -45 0 0 -369 -245 -182 -96 -11 0 0 -194 -299 -268 -115 -51 -20 -7 -7 -22 -40 -73 -77 -41 -132 -176 -161 0 0
0 0 0 0 0 0 0 0 0 0 0 0 0 0 0 0 0 0 0 0 -134 -245 -132 -88 -48 0 -134 -184 -256 -306 -152 -33 -28 -23 -18 -22 -44 0 -50 -129 -123 -136 0 0 0
0 0 0 0 0 0 0 0 0 0 0 0 0 0 0 0 0 0 0 0 -290 -218 -189 -130 -129 0 0 -24 -190 -141 -101 -34 -36 -29 -23 -41 -34 -53 -38 -135 -123 -102 0 0 0
0 0 0 0 0 0 0 0 0 0 0 0 0 0 0 0 -117 0 -338 -296 -229 -159 -105 -131 -201 -188 -147 -18 -256 -101 -163 -27 -36 -37 -37 -62 -73 -89 -96 -111 -117 -194 -78 0 0
0 0 0 0 0 0 0 0 0 0 0 0 0 0 0 0 -98 -228 -207 -199 -186 -177 -74 -78 -184 -148 -229 -169 -124 -47 -122 -22 -35 -51 -71 -24 -48 -68 -114 -107 -113 -139 -46 0 0
0 0 0 0 0 0 0 0 0 0 0 0 0 0 0 0 0 -106 -125 -110 -106 -121 -81 -75 -16 -95 -119 -112 -91 -75 -7 -25 -46 -56 -92 -91 -59 -54 -81 -125 -156 -138 -53 -37 -25
0 0 0 0 0 0 0 0 0 0 0 0 0 0 0 0 0 0 -72 -84 -72 -51 -56 -59 -14 0 -200 -203 -25 -49 -27 -30 -30 -31 -73 -60 -78 -91 -115 -147 -153 -167 -170 -25 -22
0 0 0 0 0 0 0 0 0 0 0 0 0 0 0 0 0 0 -50 -65 -78 -86 -66 -43 -67 -73 0 -131 -58 -80 -17 -25 -26 -26 -119 -89 -105 -122 -159 -149 -187 -187 -222 -253 -42
0 0 0 0 0 0 0 0 0 0 0 0 0 0 0 0 0 -20 -53 -89 -98 -83 -78 -49 0 -68 -51 0 -31 -42 -12 0 0 -25 -51 -73 -86 -92 -137 -171 -192 -231 -221 -215 -190
0 0 0 0 0 0 0 0 0 0 0 0 0 0 0 0 0 0 -131 -142 -118 -100 0 0 0 0 -2 0 0 0 0 -9 -29 0 -35 -56 -68 -96 -67 -121 -142 -165 -161 -170 -144
0 0 0 0 0 0 0 0 0 0 0 0 0 0 0 0 0 0 0 -27 -15 0 0 0 0 0 0 0 0 0 0 0 0 -44 -39 -38 -52 -124 -57 -73 -110 -156 -159 -152 -138
0 0 0 0 0 0 0 0 0 0 0 0 0 0 0 0 0 0 0 0 0 0 0 0 0 -1 0 0 0 0 0 0 0 0 0 -79 -67 -118 -167 -59 -76 -104 -116 -147 -146
0 0 0 0 0 0 0 0 0 0 0 0 0 0 0 0 0 0 0 0 0 0 0 0 0 0 0 0 0 0 0 0 0 0 -40 -113 -63 0 -166 -109 -51 -44 -64 -95 -118
0 0 0 0 0 0 0 0 0 0 -20 0 0 0 0 0 0 0 0 0 0 0 0 0 0 0 0 0 0 0 0 0 -21 -2 -18 -117 -42 -42 -123 -124 -82 -21 -34 -66 -103
0 0 0 0 0 0 0 0 0 -4 -47 0 0 0 0 0 0 0 0 0 0 0 0 0 0 0 0 0 0 0 0 0 0 0 -46 -92 -25 -237 -383 -439 -388 -220 -219 -184 -58
0 0 0 0 0 0 0 0 0 0 -52 -2 0 0 0 0 0 0 0 0 0 0 0 -1 -1 -1 0 0 0 0 0 0 0 0 -70 -106 -4 -232 -358 -325 -274 -187 -261 -250 -234
0 0 0 0 0 0 0 0 0 -115 -57 -37 0 0 0 0 0 0 0 0 0 0 0 -1 -5 -24 -18 0 0 0 0 0 0 -10 -44 -75 -24 -62 -288 -324 -250 -4 -118 -197 -217
0 0 -56 0 0 0 0 0 0 0 0 -19 -13 -18 -21 -32 -49 -5 0 0 0 0 0 0 0 0 -6 -1 -14 0 0 0 0 0 -24 -56 -106 -385 -309 -351 -459 0 0 0 -424
0 0 0 0 0 0 0 0 0 0 -11 -45 0 0 0 0 -46 -27 0 0 0 0 0 0 0 0 -23 0 0 0 0 0 0 0 -42 -73 -170 -22 0 -176 -317 -255 -453 -469 -396
0 0 0 0 0 0 0 0 0 0 0 -53 0 -6 0 0 0 0 -8 0 0 0 0 -18 0 0 -6 0 0 0 0 0 0 -41 -43 -42 -132 0 -320 -466 -296 -188 -186 -134 -81
0 0 0 0 0 0 0 0 0 0 -5 -15 0 0 0 -5 0 -24 -20 -58 -63 0 0 0 0 0 0 0 0 0 0 0 0 -21 -23 -15 0 0 -149 -351 -358 -280 -173 -155 -78
0 -60 0 -45 0 0 0 0 0 0 -47 -1 0 -10 -58 0 0 -31 -15 -14 0 0 0 0 0 0 0 0 0 0 0 0 0 0 0 -66 -26 -286 -186 -268 0 -321 -124 -147 -179
0 0 0 0 0 0 0 0 0 0 0 0 -19 -1 -16 -72 -99 -102 -106 -41 -8 0 0 0 0 0 0 0 0 0 0 0 0 0 0 0 -116 -261 -368 -343 -261 -197 -210 -156 -271
0 0 0 0 0 0 0 0 -44 0 0 0 0 -125 -48 0 0 0 0 -102 -65 -64 -5 0 0 0 0 0 -3 0 0 -3 0 0 0 0 -51 -297 -366 -297 -246 -295 -239 -199 -122
Wind_Speed
12 9 6 4 4 5 6 7 9 17 23 24 23 22 21 19 18 16 16 15 16 19 19 20 18 17 17 14 9 21 25 7 7 6 17 20 19 20 18 20 16 16 15 20 21
14 11 9 6 5 6 6 7 8 13 23 23 23 22 21 19 18 18 19 16 18 21 10 14 11 12 9 13 9 11 14 19 15 6 22 22 16 18 20 18 17 14 16 22 19
17 15 12 8 6 6 7 8 9 9 21 22 22 21 20 19 17 16 17 16 18 22 19 18 17 15 16 2 14 9 13 22 4 23 21 20 20 18 19 17 15 17 20 20 19
19 17 15 10 8 7 8 9 10 10 20 21 21 21 20 19 15 14 12 12 19 21 20 11 11 12 21 23 13 11 15 14 24 19 22 20 22 22 19 16 19 20 21 22 24
21 21 18 12 8 7 8 9 11 11 18 20 20 20 19 21 22 17 13 11 19 24 23 26 11 6 21 17 10 16 13 26 23 22 24 25 24 24 23 26 24 24 22 24 23
24 23 18 13 5 7 8 9 10 11 17 20 19 20 20 23 12 14 11 14 21 24 25 20 22 20 12 13 15 13 14 24 24 26 26 26 25 26 26 28 27 26 25 28 28
29 25 18 11 4 5 7 9 10 12 16 19 19 20 24 24 9 9 6 24 24 23 20 15 17 13 10 13 18 19 16 24 24 25 25 28 26 26 27 28 27 25 26 28 29
33 30 10 5 3 4 6 8 11 13 16 19 19 21 25 27 9 5 17 24 23 23 18 17 17 12 15 12 10 22 23 21 22 22 21 20 22 24 28 27 26 26 26 26 28
27 23 10 4 4 5 7 9 12 15 18 19 20 21 22 18 26 7 5 24 23 22 19 19 17 11 12 9 9 14 9 19 19 19 20 19 21 23 26 26 26 26 26 26 26
26 21 15 10 9 8 8 13 14 15 18 20 21 19 23 30 27 30 15 25 24 22 22 22 8 11 8 11 8 11 20 19 17 15 18 12 23 24 25 25 25 26 25 25 27
27 22 17 14 13 11 10 15 16 18 17 19 20 22 20 27 27 30 31 27 24 24 23 20 12 10 11 14 14 13 14 15 15 16 17 22 21 21 23 23 24 25 25 25 25
27 22 19 16 14 13 12 13 14 11 11 19 22 22 21 24 15 24 26 29 26 27 24 23 20 13 15 17 15 13 14 13 15 17 20 20 19 19 20 21 21 23 24 25 25
27 23 19 16 15 12 13 15 15 12 11 17 22 22 21 19 25 26 31 32 30 28 28 27 15 12 16 17 16 17 14 15 13 13 14 15 15 16 16 17 19 20 21 23 24
28 24 20 17 13 15 15 13 17 14 11 15 21 21 23 22 23 27 24 28 30 29 27 26 25 9 18 19 20 16 17 9 16 8 6 6 11 15 12 13 15 18 20 22 23
28 25 20 17 17 17 15 11 13 14 11 21 21 18 21 23 18 23 20 19 31 31 28 27 27 25 8 11 19 25 23 18 17 22 4 11 16 20 15 15 16 15 17 19 22
30 27 22 18 21 19 18 15 13 14 14 22 20 19 21 20 22 4 12 21 26 26 27 28 23 23 20 25 22 18 19 19 20 21 17 7 4 1 16 15 14 11 12 15 19
32 28 23 24 21 16 16 15 13 15 14 22 18 20 23 20 20 17 17 23 26 23 24 22 20 19 14 14 21 23 20 19 20 19 3 6 6 7 3 5 5 12 7 13 18
33 30 24 23 27 22 18 18 18 16 17 14 17 17 21 23 21 20 24 25 26 26 24 21 24 18 14 14 18 21 17 15 18 17 13 10 12 18 19 13 10 9 21 22 23
31 22 23 27 27 25 20 19 19 20 14 17 16 15 21 23 17 19 19 21 27 25 23 17 19 14 10 13 19 21 20 18 21 17 11 14 19 11 16 21 19 14 28 37 33
27 25 28 19 5 9 22 22 20 17 16 20 11 13 16 17 14 18 18 20 22 25 9 14 6 17 19 16 15 20 20 20 22 20 19 17 10 10 16 19 26 18 37 42 32
23 20 24 3 3 11 25 25 28 28 26 23 18 23 20 25 25 16 15 15 14 10 12 23 22 15 19 19 23 20 26 27 24 23 23 14 22 11 10 15 22 24 39 26 27
20 16 5 1 2 20 31 31 28 26 23 25 23 21 16 2 27 24 13 15 8 7 14 17 20 23 18 17 21 20 25 26 24 28 20 19 22 11 13 12 14 21 34 27 24
22 17 22 2 14 31 32 33 33 23 21 25 19 24 24 6 6 24 13 13 11 14 15 20 20 23 17 18 26 24 23 20 22 18 22 24 20 9 9 11 12 31 22 16 10
17 17 19 11 21 30 31 33 35 33 28 30 28 26 25 25 24 24 18 20 25 15 15 20 27 27 25 20 25 20 24 22 21 18 18 17 15 11 14 14 14 32 27 23 21
15 17 18 20 21 26 28 31 32 29 26 28 26 30 29 29 29 22 24 11 15 4 17 20 27 27 28 13 17 20 25 27 26 25 24 11 11 8 13 16 22 24 25 22 19
19 20 23 26 26 26 27 29 30 31 26 27 28 28 24 19 21 25 23 20 17 12 16 20 24 23 29 27 26 21 27 21 25 24 22 17 10 7 10 11 21 25 21 23 20
24 24 20 25 27 27 27 29 29 27 24 23 22 21 29 22 25 28 30 31 29 24 23 19 16 20 28 29 27 22 25 22 20 20 21 23 12 14 11 15 19 20 21 26 20
Wind_Direction
36 45 63 104 147 149 148 148 167 213 258 257 247 252 255 251 243 218 212 196 155 111 120 135 163 205 204 233 211 127 125 195 238 346 63 79 59 54 26 71 85 86 75 123 123
38 48 64 89 116 125 124 114 136 180 258 256 248 252 254 254 228 214 201 89 69 94 176 189 301 323 262 240 228 167 173 148 147 310 82 68 63 47 55 69 32 37 69 117 123
43 50 60 78 108 113 106 107 106 111 262 253 252 251 251 249 232 219 121 84 77 77 40 12 19 359 357 7 174 195 171 125 248 45 78 50 78 51 76 94 80 81 108 117 127
45 49 55 73 91 106 97 96 91 90 246 253 254 251 250 240 235 244 49 71 103 96 59 309 337 350 33 109 181 183 163 157 110 117 74 62 68 61 90 100 90 93 106 123 131
44 45 52 69 88 101 103 98 90 111 226 252 254 249 245 234 221 240 54 71 110 130 120 56 349 26 34 131 187 169 173 101 112 52 48 63 49 26 61 79 86 97 102 119 127
38 38 48 64 106 100 107 106 106 144 209 249 251 246 238 229 271 257 54 90 126 140 147 112 141 143 183 206 197 166 193 104 107 92 72 48 57 52 69 90 91 100 105 121 132
23 30 47 66 116 126 121 120 136 159 194 242 246 240 228 217 295 296 40 154 143 150 155 131 136 107 88 222 181 178 191 104 104 93 72 65 45 47 91 94 96 99 112 127 135
349 2 63 90 143 174 156 147 159 164 189 223 232 231 222 221 268 8 119 163 184 184 187 152 130 125 157 171 184 112 176 100 114 78 58 47 41 63 87 92 97 102 114 121 137
318 308 277 229 193 200 172 156 162 168 175 196 201 217 230 249 224 131 42 192 185 196 195 194 167 196 217 246 252 189 17 88 124 98 56 43 55 95 97 89 99 108 115 122 132
313 301 281 259 233 221 180 130 134 165 169 171 205 228 228 212 234 218 269 199 214 228 224 203 52 122 167 208 225 263 115 114 76 78 29 211 83 90 92 93 101 109 118 125 134
313 300 283 264 244 228 165 113 114 108 161 153 139 198 258 195 218 220 205 212 228 234 223 236 56 138 179 180 218 219 152 86 75 82 94 133 89 91 90 91 103 111 118 130 137
311 299 283 265 243 214 150 132 166 160 194 177 188 198 231 160 244 233 230 223 229 227 233 255 282 175 212 232 230 224 60 79 69 77 97 98 80 91 95 99 106 112 118 128 128
307 298 283 260 240 158 152 178 195 224 173 177 177 184 200 176 216 187 193 217 221 231 237 246 252 164 211 234 236 260 355 94 79 92 80 64 54 85 98 96 106 112 120 126 129
303 294 281 258 195 168 168 181 197 192 173 162 159 179 166 170 206 193 159 219 224 217 235 250 243 174 221 212 282 339 280 75 310 81 63 10 349 155 109 116 116 119 119 133 136
299 290 274 224 217 202 178 247 176 188 221 117 147 124 137 166 216 196 141 167 212 231 251 241 260 266 1 320 345 290 248 256 225 224 203 308 300 313 195 158 147 131 125 128 138
296 286 270 202 200 197 227 233 226 186 166 126 111 140 129 173 205 42 107 174 204 212 234 237 234 246 316 292 276 213 211 234 229 226 323 92 23 152 187 163 144 125 122 117 123
293 282 246 232 212 240 235 200 207 184 190 113 103 117 154 157 173 120 138 169 193 215 209 216 199 202 161 188 226 229 225 233 259 240 90 111 61 106 131 66 72 288 274 121 135
292 279 230 192 224 254 245 239 227 207 198 185 105 119 148 159 115 141 154 177 190 197 226 246 243 191 143 175 241 250 249 197 242 229 340 77 342 328 14 27 9 305 260 261 162
291 304 273 231 190 233 256 264 231 207 191 130 117 123 165 148 117 129 147 168 202 195 215 266 247 166 97 181 251 237 263 253 252 247 40 322 321 32 16 9 353 316 256 221 214
291 280 242 259 83 283 250 250 229 221 251 268 143 143 160 150 123 155 158 190 196 205 224 204 232 185 222 174 215 216 241 265 294 323 338 329 352 354 350 357 353 304 234 239 235
310 293 228 103 66 279 250 245 236 248 254 254 313 265 287 268 262 195 185 189 157 42 329 261 280 235 293 294 276 276 275 287 300 305 326 340 327 17 37 49 60 112 190 205 217
306 300 334 5 10 276 212 239 256 244 264 256 283 268 336 124 248 253 176 331 305 357 307 282 289 267 322 337 320 260 274 273 283 293 339 339 336 40 42 62 109 140 173 186 206
293 296 258 21 261 243 243 236 235 212 251 250 288 281 268 153 298 236 328 332 325 328 323 308 292 287 315 301 291 297 297 314 301 328 326 329 341 15 13 26 116 170 196 205 65
314 297 295 283 278 249 258 257 261 263 291 251 280 280 283 283 281 273 316 298 294 311 327 317 271 273 293 309 309 222 288 310 313 332 347 347 13 23 42 79 116 175 186 170 124
323 296 306 281 281 277 274 266 276 287 298 292 280 271 275 276 281 296 309 325 185 6 312 318 278 269 269 307 320 282 303 298 298 305 322 360 22 87 100 100 143 156 156 156 192
316 301 290 278 279 280 278 284 284 282 303 271 288 287 280 287 294 287 292 292 325 315 319 311 280 277 269 280 299 323 286 320 301 307 323 340 359 120 110 93 132 158 151 164 195
320 294 304 283 282 282 296 292 292 298 287 298 308 291 279 307 295 287 280 273 273 295 289 302 306 286 270 277 296 304 288 322 326 334 340 346 23 131 130 134 148 150 158 178 171